This is the latest recevied weather packets stored in our database for station/object R8AHC-13. If no packets are shown the sender has not sent any weather packets the latest 10 day(s).
| Time | Temp. | Humidity | Pressure | Rain* | Wind** | Luminosity | Snow |
|---|---|---|---|---|---|---|---|
| 1777649823 | 7.22° C | 100% | 1011 hPa | - | 7.15 m/s, 320° | - | - |
| 1777646221 | 7.22° C | 100% | 1010 hPa | - | 5.81 m/s, 330° | - | - |
| 1777642621 | 7.22° C | 100% | 1010 hPa | - | 8.05 m/s, 350° | - | - |
| 1777639023 | 7.22° C | 100% | 1010 hPa | - | 5.81 m/s, 350° | - | - |
| 1777635423 | 7.22° C | 100% | 1009 hPa | - | 7.15 m/s, 340° | - | - |
| 1777631821 | 7.22° C | 100% | 1008 hPa | - | 5.81 m/s, 360° | - | - |
| 1777628222 | 7.22° C | 100% | 1008 hPa | - | 7.15 m/s, 360° | - | - |
| 1777624622 | 7.22° C | 100% | 1007 hPa | - | 5.81 m/s, 360° | - | - |
| 1777621021 | 7.22° C | 100% | 1007 hPa | - | 5.81 m/s, 10° | - | - |
| 1777617422 | 7.22° C | 100% | 1007 hPa | - | 5.81 m/s, 10° | - | - |
| 1777613822 | 7.22° C | 100% | 1007 hPa | - | 7.15 m/s, 10° | - | - |
| 1777610222 | 7.22° C | 100% | 1008 hPa | - | 8.05 m/s, 10° | - | - |
| 1777606621 | 7.22° C | 100% | 1009 hPa | - | 8.05 m/s, 20° | - | - |
| 1777603022 | 7.22° C | 100% | 1010 hPa | - | 7.15 m/s, 350° | - | - |
| 1777599422 | 7.22° C | 100% | 1011 hPa | - | 7.15 m/s, 360° | - | - |
| 1777595822 | 7.22° C | 100% | 1012 hPa | - | 5.81 m/s, 340° | - | - |
| 1777592223 | 7.22° C | 100% | 1011 hPa | - | 4.92 m/s, 360° | - | - |
| 1777588622 | 7.22° C | 100% | 1012 hPa | - | 4.02 m/s, 360° | - | - |
| 1777585022 | 7.22° C | 100% | 1013 hPa | - | 3.13 m/s, 360° | - | - |
| 1777581422 | 11.11° C | 54% | 1014 hPa | - | 3.13 m/s, 40° | - | - |
| 1777577821 | 11.11° C | 54% | 1015 hPa | - | 1.79 m/s, 40° | - | - |
| 1777574222 | 11.11° C | 54% | 1015 hPa | - | 3.13 m/s, 130° | - | - |
| 1777570621 | 11.11° C | 54% | 1016 hPa | - | 4.02 m/s, 140° | - | - |
| 1777567022 | 11.11° C | 54% | 1016 hPa | - | 4.92 m/s, 140° | - | - |
| 1777563421 | 12.78° C | 38% | 1017 hPa | - | 1.79 m/s, 80° | - | - |
* Rain since midnight (hover to see other rain measurements)
** Current wind speed in m/s (hover to see current wind gust speed)